User: anonymous   Login
Location: Newark
(40.4667°N, 5.6000°W)
Time: 23:01:55
(UTC+00:00)
Language:

Vanguard 1 Rocket - Orbit

View from above orbital plane
View from above orbital plane
View from above satellite
View from above satellite

Ground track
Ground track

The orbit data is extracted from the following two-line orbital elements,

1    16U 58002A   19315.73266729 -.00000126 +00000-0 -14866-3 0  9992
2    16 034.2646 066.1555 2027415 035.5881 336.4352 10.48734156435875
Epoch (UTC): 11 November 2019 17:35:02
Eccentricity: 0.2027415
inclination: 34.2646°
perigee height: 651 km
apogee height: 4225 km
right ascension of ascending node: 66.1555°
argument of perigee: 35.5881°
revolutions per day: 10.48734156
mean anomaly at epoch: 336.4352°
orbit number at epoch: 43587

The dashed part of the orbit path shows where the satellite is in the earth's shadow,  

DLR